Weather History for Stevens Point, WI

Change the Weather History Date:

Sunday, October 16, 2011

  Actual Average Record
Temperature  
Mean Temperature 50 °F -  
Max Temperature 57 °F 56 °F 84 °F (1968)
Min Temperature 44 °F 37 °F 17 °F (1952)
Degree Days  
Heating Degree Days 14    
Moisture  
Dew Point 33 °F    
Average Humidity 51    
Maximum Humidity 76    
Minimum Humidity 31    
Precipitation  
Precipitation 0.00 in - - ()
Sea Level Pressure  
Sea Level Pressure 29.73 in    
Wind  
Wind Speed 10 mph (West)    
Max Wind Speed 23 mph    
Max Gust Speed 37 mph    
Visibility 10 miles    
Events Rain    
Averages and records for this station are not official NWS values.
T = Trace of Precipitation, MM = Missing Value Source: NWS Daily Summary

Daily Weather History Graph

Daily Weather History Graph

Search for Another Location

Airport:

Trip Planner

Search our weather history database for the weather conditions in past years. The results will help you decide how hot, cold, wet, or windy it might be!

Date:

Astronomy

Oct. 16, 2011 Rise Set
Actual Time 7:14 AM CDT 6:12 PM CDT
Civil Twilight 6:44 AM CDT 6:41 PM CDT
Nautical Twilight 6:11 AM CDT 7:15 PM CDT
Astronomical Twilight 5:37 AM CDT 7:49 PM CDT
Moon 8:48 PM CDT (10/16) 11:41 AM CDT (10/16)
Length of Visible Light 11h 56m
Length of Day
10h 58m
Waning Gibbous, 82% of the Moon is Illuminated
Oct 16
Waning Gibbous
Oct 19
Last Quarter
Oct 26
New
Nov 2
First Quarter
Nov 10
Full

Hourly Weather History & Observations

Time (CDT) Temp. Windchill Dew Point Humidity Pressure Visibility Wind Dir Wind Speed Gust Speed Precip Events Conditions
12:35 AM 51.8 °F - 37.4 °F 58% 29.79 in 10.0 mi WSW 5.8 mph - N/A   Overcast
12:55 AM 51.8 °F - 37.4 °F 58% 29.78 in 10.0 mi WSW 8.1 mph - N/A   Overcast
1:15 AM 51.8 °F - 37.4 °F 58% 29.77 in 10.0 mi West 9.2 mph - N/A   Overcast
1:35 AM 51.8 °F - 37.4 °F 58% 29.76 in 10.0 mi West 6.9 mph - N/A   Overcast
1:55 AM 51.8 °F - 37.4 °F 58% 29.76 in 10.0 mi West 5.8 mph - N/A   Overcast
2:15 AM 51.8 °F - 37.4 °F 58% 29.76 in 10.0 mi West 4.6 mph - N/A   Overcast
2:35 AM 50.0 °F - 37.4 °F 62% 29.76 in 10.0 mi WSW 8.1 mph - N/A   Overcast
2:55 AM 50.0 °F - 37.4 °F 62% 29.76 in 10.0 mi West 6.9 mph - N/A   Overcast
3:15 AM 50.0 °F - 37.4 °F 62% 29.77 in 10.0 mi WSW 5.8 mph - N/A   Overcast
3:55 AM 48.2 °F - 37.4 °F 66% 29.76 in 10.0 mi West 4.6 mph - N/A Rain Light Rain
4:15 AM 48.2 °F - 37.4 °F 66% 29.76 in 10.0 mi West 6.9 mph - N/A   Overcast
4:35 AM 48.2 °F - 37.4 °F 66% 29.76 in 10.0 mi WSW 5.8 mph - N/A   Overcast
4:55 AM 48.2 °F - 37.4 °F 66% 29.75 in 10.0 mi WSW 4.6 mph - N/A   Overcast
5:15 AM 46.4 °F 42.9 °F 39.2 °F 76% 29.76 in 10.0 mi WSW 6.9 mph - N/A   Overcast
5:35 AM 46.4 °F 43.5 °F 37.4 °F 71% 29.76 in 10.0 mi WSW 5.8 mph - N/A   Mostly Cloudy
5:55 AM 46.4 °F 43.5 °F 39.2 °F 76% 29.75 in 10.0 mi WSW 5.8 mph - N/A   Scattered Clouds
6:35 AM 44.6 °F 41.4 °F 37.4 °F 76% 29.75 in 10.0 mi WSW 5.8 mph - N/A   Clear
6:55 AM 44.6 °F 41.4 °F 37.4 °F 76% 29.75 in 10.0 mi WSW 5.8 mph - N/A   Clear
7:15 AM 44.6 °F 41.4 °F 37.4 °F 76% 29.75 in 10.0 mi West 5.8 mph - N/A   Clear
7:35 AM 44.6 °F 40.7 °F 37.4 °F 76% 29.75 in 10.0 mi West 6.9 mph - N/A   Clear
7:55 AM 44.6 °F 40.2 °F 37.4 °F 76% 29.75 in 10.0 mi WSW 8.1 mph - N/A   Clear
8:15 AM 44.6 °F 39.7 °F 37.4 °F 76% 29.76 in 10.0 mi West 9.2 mph - N/A   Clear
8:35 AM 46.4 °F 42.4 °F 37.4 °F 71% 29.76 in 10.0 mi WSW 8.1 mph - N/A   Clear
8:55 AM 46.4 °F 41.9 °F 37.4 °F 71% 29.76 in 10.0 mi West 9.2 mph 16.1 mph N/A   Clear
9:15 AM 48.2 °F - 37.4 °F 66% 29.76 in 10.0 mi West 12.7 mph 17.3 mph N/A   Clear
9:35 AM 48.2 °F - 37.4 °F 66% 29.75 in 10.0 mi WSW 10.4 mph 17.3 mph N/A   Clear
9:55 AM 50.0 °F - 37.4 °F 62% 29.75 in 10.0 mi West 9.2 mph 18.4 mph N/A   Clear
10:15 AM 51.8 °F - 37.4 °F 58% 29.74 in 10.0 mi WSW 13.8 mph 19.6 mph N/A   Clear
10:35 AM 53.6 °F - 35.6 °F 51% 29.74 in 10.0 mi West 11.5 mph 19.6 mph N/A   Clear
10:55 AM 53.6 °F - 35.6 °F 51% 29.74 in 10.0 mi West 16.1 mph 28.8 mph N/A   Clear
11:15 AM 53.6 °F - 35.6 °F 51% 29.74 in 10.0 mi West 9.2 mph 24.2 mph N/A   Scattered Clouds
11:35 AM 53.6 °F - 35.6 °F 51% 29.73 in 10.0 mi West 13.8 mph 27.6 mph N/A   Scattered Clouds
11:55 AM 55.4 °F - 35.6 °F 47% 29.73 in 10.0 mi West 15.0 mph 27.6 mph N/A   Mostly Cloudy
12:35 PM 55.4 °F - 30.2 °F 38% 29.72 in 10.0 mi West 19.6 mph 29.9 mph N/A   Mostly Cloudy
12:55 PM 53.6 °F - 28.4 °F 38% 29.71 in 10.0 mi West 23.0 mph 33.4 mph N/A   Scattered Clouds
1:15 PM 53.6 °F - 26.6 °F 35% 29.71 in 10.0 mi West 17.3 mph 29.9 mph N/A   Clear
1:35 PM 55.4 °F - 28.4 °F 36% 29.71 in 10.0 mi West 16.1 mph 31.1 mph N/A   Scattered Clouds
1:55 PM 55.4 °F - 28.4 °F 36% 29.71 in 10.0 mi West 13.8 mph 28.8 mph N/A   Scattered Clouds
2:15 PM 55.4 °F - 28.4 °F 36% 29.70 in 10.0 mi WNW 15.0 mph 28.8 mph N/A   Mostly Cloudy
2:35 PM 57.2 °F - 28.4 °F 33% 29.69 in 10.0 mi WNW 16.1 mph 32.2 mph N/A   Scattered Clouds
2:55 PM 57.2 °F - 28.4 °F 33% 29.69 in 10.0 mi West 15.0 mph 29.9 mph N/A   Scattered Clouds
3:15 PM 55.4 °F - 28.4 °F 36% 29.69 in 10.0 mi West 17.3 mph 35.7 mph N/A   Mostly Cloudy
3:35 PM 57.2 °F - 26.6 °F 31% 29.69 in 10.0 mi West 20.7 mph 29.9 mph N/A   Scattered Clouds
4:15 PM 55.4 °F - 26.6 °F 33% 29.68 in 10.0 mi West 20.7 mph 32.2 mph N/A   Scattered Clouds
4:35 PM 55.4 °F - 26.6 °F 33% 29.68 in 10.0 mi West 21.9 mph 36.8 mph N/A   Scattered Clouds
4:55 PM 55.4 °F - 26.6 °F 33% 29.68 in 10.0 mi West 18.4 mph 33.4 mph N/A   Clear
5:15 PM 55.4 °F - 26.6 °F 33% 29.68 in 10.0 mi WSW 16.1 mph 31.1 mph N/A   Clear
5:35 PM 55.4 °F - 26.6 °F 33% 29.68 in 10.0 mi West 15.0 mph 35.7 mph N/A   Clear
5:55 PM 53.6 °F - 26.6 °F 35% 29.67 in 10.0 mi West 11.5 mph 20.7 mph N/A   Clear
6:15 PM 53.6 °F - 26.6 °F 35% 29.68 in 10.0 mi West 15.0 mph 25.3 mph N/A   Clear
6:35 PM 53.6 °F - 26.6 °F 35% 29.68 in 10.0 mi West 11.5 mph 24.2 mph N/A   Clear
6:55 PM 53.6 °F - 26.6 °F 35% 29.68 in 10.0 mi WSW 13.8 mph 19.6 mph N/A   Clear
7:15 PM 51.8 °F - 24.8 °F 35% 29.69 in 10.0 mi WSW 20.7 mph 27.6 mph N/A   Clear
7:35 PM 51.8 °F - 24.8 °F 35% 29.69 in 10.0 mi West 11.5 mph 23.0 mph N/A   Clear
7:55 PM 51.8 °F - 26.6 °F 38% 29.70 in 10.0 mi WSW 13.8 mph 19.6 mph N/A   Clear
8:15 PM 51.8 °F - 24.8 °F 35% 29.70 in 10.0 mi West 16.1 mph 28.8 mph N/A   Clear
8:35 PM 51.8 °F - 26.6 °F 38% 29.71 in 10.0 mi West 13.8 mph 26.5 mph N/A   Clear
8:55 PM 50.0 °F - 26.6 °F 40% 29.72 in 10.0 mi West 12.7 mph 19.6 mph N/A   Clear
9:15 PM 50.0 °F - 26.6 °F 40% 29.72 in 10.0 mi West 16.1 mph 20.7 mph N/A   Clear
9:35 PM 48.2 °F - 26.6 °F 43% 29.73 in 10.0 mi West 8.1 mph 24.2 mph N/A   Clear
9:55 PM 48.2 °F - 28.4 °F 46% 29.73 in 10.0 mi West 11.5 mph 19.6 mph N/A   Clear
10:35 PM 48.2 °F - 28.4 °F 46% 29.73 in 10.0 mi West 16.1 mph 24.2 mph N/A   Clear
10:55 PM 48.2 °F - 28.4 °F 46% 29.73 in 10.0 mi West 12.7 mph 23.0 mph N/A   Clear
11:15 PM 46.4 °F 40.4 °F 28.4 °F 50% 29.73 in 10.0 mi West 13.8 mph 20.7 mph N/A   Clear
11:35 PM 46.4 °F 40.4 °F 28.4 °F 50% 29.73 in 10.0 mi WSW 13.8 mph 20.7 mph N/A   Clear
11:55 PM 46.4 °F 40.1 °F 28.4 °F 50% 29.73 in 10.0 mi WSW 15.0 mph 23.0 mph N/A   Clear